Location: Monroe
(41.9160°N, 83.3980°W)
Time: 18:18:04
(UTC-04:00)

Amateur Radio Satellites - All Passes

Search period start: 20 April 2014 17:48
Search period end: 21 April 2014 17:48
Location: Monroe, 41.9160°N, 83.3980°W

Satellite Date Start Highest point End Downlink Frequencies (MHz)
Time Altitude Azimuth
UOSAT-12 20 Apr 17:53:40 17:57:57 42° 117° (ESE) 18:02:21 437.025 FM, 437.400 FM
OPAL 20 Apr 18:09:15 18:12:10 15° 303° (WNW) 18:15:05 ?
ISS 20 Apr 18:13:50 18:16:14 18° 349° (NNW) 18:18:38 145.800 FM
RS-15 20 Apr 18:58:12 19:06:01 23° 259° (WSW) 19:14:01 29.354 - 29.394 USB, Beacon 29.352 USB
STRAND 1 20 Apr 19:10:00 19:13:13 17° 91° (E) 19:16:25 ?
Hamsat 20 Apr 19:12:39 19:16:49 68° 259° (W) 19:21:04 145.90 MHz
JAS-2 20 Apr 19:30:56 19:36:37 60° 73° (ENE) 19:41:51 435.800 - 435.900 CW/SSB, 435.910 FM
Saudisat 1A 20 Apr 19:33:23 19:37:15 28° 47° (NE) 19:41:04 436.775 MHz
UOSAT-12 20 Apr 19:34:25 19:38:16 26° 315° (NW) 19:42:12 437.025 FM, 437.400 FM
SO-67 20 Apr 19:48:12 19:51:36 52° 75° (ENE) 19:55:01 435.3500 MHz FM
ISS 20 Apr 19:51:36 19:53:55 17° 9° (N) 19:56:13 145.800 FM
STRAND 1 20 Apr 20:47:46 20:52:47 59° 288° (WNW) 20:57:46 ?
HO-68 20 Apr 20:50:03 20:56:23 36° 62° (ENE) 21:02:45 435.675 MHz FM
Saudisat 1A 20 Apr 21:12:54 21:16:53 34° 245° (WSW) 21:20:49 436.775 MHz
JAS-2 20 Apr 21:18:23 21:22:04 17° 267° (W) 21:25:35 435.800 - 435.900 CW/SSB, 435.910 FM
ISS 20 Apr 21:28:02 21:31:17 45° 29° (NNE) 21:34:31 145.800 FM
MaSat-1 20 Apr 22:18:35 22:21:28 75° 296° (WNW) 22:24:03 437.345 MHz
FUNcube-1 20 Apr 22:23:40 22:26:52 21° 67° (ENE) 22:30:02 145.950 - 145.970 MHz USB
Oscar 11 20 Apr 22:28:11 22:32:28 78° 76° (ENE) 22:36:49 145.825 FM, Beacon 2401.500 USB
HO-68 20 Apr 22:37:09 22:43:55 46° 260° (W) 22:50:45 435.675 MHz FM
ISS 20 Apr 23:05:06 23:07:52 24° 226° (SW) 23:10:36 145.800 FM
Sapphire 20 Apr 23:54:36 23:57:30 15° 103° (ESE) 00:00:25 437.095 MHz 1200 baud AX-25 AFSK
FUNcube-1 20 Apr 23:59:21 00:03:07 32° 263° (W) 00:06:52 145.950 - 145.970 MHz USB
SO-50 21 Apr 00:08:21 00:12:38 35° 49° (NE) 00:16:57 436.795 FM
PCSat 21 Apr 00:36:52 00:41:49 38° 111° (ESE) 00:46:48 145.825 MHz
Sapphire 21 Apr 01:34:49 01:40:14 76° 301° (WNW) 01:45:41 437.095 MHz 1200 baud AX-25 AFSK
SO-50 21 Apr 01:49:05 01:53:07 29° 246° (WSW) 01:57:10 436.795 FM
Oscar 19 21 Apr 01:54:53 01:57:11 13° 89° (E) 01:59:27 437.125 CW, 437.150 USB
Oscar 16 21 Apr 02:02:36 02:05:54 17° 91° (E) 02:09:11 437.025 USB, Beacon 2401.1428
OPAL 21 Apr 02:07:16 02:10:48 19° 60° (ENE) 02:14:22 ?
PCSat 21 Apr 02:20:25 02:25:16 33° 310° (NW) 02:30:10 145.825 MHz
UOSAT-12 21 Apr 02:22:47 02:27:18 42° 50° (NE) 02:31:46 437.025 FM, 437.400 FM
KITSAT 1 21 Apr 02:39:53 02:47:08 38° 109° (ESE) 02:54:25 435.175 FM
Uribyol 2 21 Apr 02:40:22 02:44:05 20° 93° (E) 02:47:47 436.500 FM
AO-27 21 Apr 03:20:31 03:25:29 45° 99° (E) 03:30:25 436.795 MHz FM
Sapphire 21 Apr 03:21:33 03:24:36 15° 321° (NW) 03:27:39 437.095 MHz 1200 baud AX-25 AFSK
AO-Echo 21 Apr 03:21:48 03:26:10 35° 97° (E) 03:30:27 ?
Gurwin Techsat 1B 21 Apr 03:23:24 03:26:25 15° 90° (E) 03:29:25 435.225 FM
ITAMSAT 1 21 Apr 03:30:43 03:35:49 55° 101° (E) 03:40:52 435.822 SSB
Oscar 19 21 Apr 03:31:52 03:37:05 77° 286° (WNW) 03:42:16 437.125 CW, 437.150 USB
Oscar 16 21 Apr 03:40:32 03:45:39 60° 288° (WNW) 03:50:45 437.025 USB, Beacon 2401.1428
OPAL 21 Apr 03:44:18 03:49:14 57° 257° (WSW) 03:54:16 ?
UOSAT-12 21 Apr 04:03:27 04:07:14 24° 248° (WSW) 04:10:58 437.025 FM, 437.400 FM
TMSAT-1 21 Apr 04:09:20 04:13:55 29° 95° (E) 04:18:29 436.925 FM
Uribyol 2 21 Apr 04:18:50 04:23:51 51° 289° (WNW) 04:28:51 436.500 FM
KITSAT 1 21 Apr 04:34:24 04:42:17 53° 309° (NW) 04:50:13 435.175 FM
AO-27 21 Apr 05:00:40 05:04:43 24° 296° (WNW) 05:08:46 436.795 MHz FM
AO-Echo 21 Apr 05:00:56 05:04:47 25° 294° (WNW) 05:08:35 ?
Gurwin Techsat 1B 21 Apr 05:01:36 05:06:53 68° 287° (WNW) 05:12:08 435.225 FM
ITAMSAT 1 21 Apr 05:11:14 05:14:53 20° 298° (WNW) 05:18:32 435.822 SSB
JAS-1B 21 Apr 05:12:41 05:18:12 51° 100° (E) 05:23:59 435.800 - 435.900 CW/SSB
Oscar 19 21 Apr 05:14:26 05:15:32 11° 303° (WNW) 05:16:39 437.125 CW, 437.150 USB
Uosat F 21 Apr 05:19:59 05:24:49 47° 100° (E) 05:29:37 435.120 FM
AO-7 21 Apr 05:44:50 05:52:53 51° 101° (ESE) 06:00:54 29.400 - 29.500 MHz
TMSAT-1 21 Apr 05:49:04 05:53:52 36° 292° (WNW) 05:58:39 436.925 FM
STRAND 1 21 Apr 06:26:03 06:30:15 26° 65° (ENE) 06:34:27 ?
KITSAT 1 21 Apr 06:34:39 06:39:48 18° 334° (NNW) 06:44:59 435.175 FM
MaSat-1 21 Apr 06:41:26 06:43:42 19° 59° (ENE) 06:46:13 437.345 MHz
Hamsat 21 Apr 06:58:49 07:02:10 21° 93° (E) 07:05:31 145.90 MHz
Uosat F 21 Apr 06:59:33 07:03:16 21° 297° (WNW) 07:06:59 435.120 FM
JAS-1B 21 Apr 07:04:22 07:08:35 22° 298° (WNW) 07:12:54 435.800 - 435.900 CW/SSB
RS-15 21 Apr 07:07:19 07:18:17 58° 113° (ESE) 07:28:53 29.354 - 29.394 USB, Beacon 29.352 USB
AO-40 21 Apr 07:25:02 10:15:42 22° 134° (SE) 11:37:49 Beacon 2401.320
AO-7 21 Apr 07:37:58 07:45:27 39° 300° (WNW) 07:52:56 29.400 - 29.500 MHz
STRAND 1 21 Apr 08:04:29 08:09:15 39° 262° (W) 08:14:01 ?
MaSat-1 21 Apr 08:19:34 08:22:01 21° 249° (WSW) 08:24:48 437.345 MHz
JAS-2 21 Apr 08:23:12 08:28:30 51° 100° (E) 08:34:21 435.800 - 435.900 CW/SSB, 435.910 FM
Hamsat 21 Apr 08:34:16 08:38:14 35° 289° (WNW) 08:42:11 145.90 MHz
KITSAT 1 21 Apr 08:36:36 08:39:22 12° 5° (N) 08:42:07 435.175 FM
Sapphire 21 Apr 08:40:16 08:43:48 17° 41° (NE) 08:47:19 437.095 MHz 1200 baud AX-25 AFSK
SO-67 21 Apr 08:45:22 08:48:51 63° 100° (E) 08:52:19 435.3500 MHz FM
RS-15 21 Apr 09:20:15 09:30:56 47° 317° (NW) 09:41:24 29.354 - 29.394 USB, Beacon 29.352 USB
PCSat 21 Apr 09:24:12 09:29:10 35° 51° (NE) 09:34:06 145.825 MHz
PANSAT 21 Apr 09:29:50 09:30:13 10° 173° (S) 09:30:36 not established
HO-68 21 Apr 10:04:14 10:10:42 35° 97° (E) 10:17:07 435.675 MHz FM
JAS-2 21 Apr 10:09:13 10:13:22 23° 295° (WNW) 10:17:47 435.800 - 435.900 CW/SSB, 435.910 FM
Oscar 11 21 Apr 10:17:07 10:19:26 14° 91° (E) 10:21:44 145.825 FM, Beacon 2401.500 USB
Sapphire 21 Apr 10:22:32 10:27:59 89° 241° (WSW) 10:33:24 437.095 MHz 1200 baud AX-25 AFSK
KITSAT 1 21 Apr 10:32:04 10:38:26 24° 35° (NE) 10:44:44 435.175 FM
PCSat 21 Apr 11:07:39 11:12:34 36° 249° (WSW) 11:17:26 145.825 MHz
PANSAT 21 Apr 11:08:59 11:09:37 10° 186° (S) 11:10:14 not established
Saudisat 1A 21 Apr 11:19:12 11:23:33 56° 119° (ESE) 11:27:56 436.775 MHz
RS-15 21 Apr 11:38:55 11:47:00 22° 349° (N) 11:55:02 29.354 - 29.394 USB, Beacon 29.352 USB
FUNcube-1 21 Apr 11:47:35 11:51:40 43° 99° (E) 11:55:50 145.950 - 145.970 MHz USB
Oscar 11 21 Apr 11:51:41 11:55:56 53° 287° (WNW) 12:00:10 145.825 FM, Beacon 2401.500 USB
HO-68 21 Apr 11:51:44 11:58:30 47° 295° (WNW) 12:05:16 435.675 MHz FM
Sapphire 21 Apr 12:08:45 12:10:34 12° 258° (WSW) 12:12:23 437.095 MHz 1200 baud AX-25 AFSK
KITSAT 1 21 Apr 12:26:58 12:35:07 82° 58° (ENE) 12:43:12 435.175 FM
Saudisat 1A 21 Apr 13:00:09 13:03:30 20° 318° (NW) 13:06:51 436.775 MHz
Oscar 19 21 Apr 13:11:38 13:15:22 21° 63° (ENE) 13:19:09 437.125 CW, 437.150 USB
ITAMSAT 1 21 Apr 13:13:46 13:15:36 12° 58° (ENE) 13:17:26 435.822 SSB
Oscar 16 21 Apr 13:19:44 13:23:56 26° 65° (ENE) 13:28:09 437.025 USB, Beacon 2401.1428
FUNcube-1 21 Apr 13:24:57 13:27:47 18° 294° (WNW) 13:30:40 145.950 - 145.970 MHz USB
RS-15 21 Apr 13:55:26 14:04:26 28° 25° (NNE) 14:13:28 29.354 - 29.394 USB, Beacon 29.352 USB
Uribyol 2 21 Apr 13:58:27 14:02:57 31° 67° (ENE) 14:07:28 436.500 FM
ISS 21 Apr 14:13:13 14:14:08 11° 129° (SE) 14:15:03 145.800 FM
KITSAT 1 21 Apr 14:23:52 14:29:33 22° 257° (WSW) 14:35:14 435.175 FM
AO-Echo 21 Apr 14:34:35 14:39:37 50° 72° (ENE) 14:44:32 ?
AO-27 21 Apr 14:39:00 14:44:09 71° 73° (ENE) 14:49:20 436.795 MHz FM
Gurwin Techsat 1B 21 Apr 14:44:27 14:48:45 26° 65° (ENE) 14:53:05 435.225 FM
ITAMSAT 1 21 Apr 14:49:06 14:54:17 86° 75° (ENE) 14:59:30 435.822 SSB
Oscar 19 21 Apr 14:49:20 14:54:20 52° 260° (W) 14:59:23 437.125 CW, 437.150 USB
AO-7 21 Apr 14:56:07 15:00:49 17° 47° (NE) 15:05:30 29.400 - 29.500 MHz
Oscar 16 21 Apr 14:58:17 15:03:05 40° 262° (W) 15:07:55 437.025 USB, Beacon 2401.1428
TMSAT-1 21 Apr 15:30:21 15:35:23 47° 70° (ENE) 15:40:26 436.925 FM
Uribyol 2 21 Apr 15:37:46 15:42:22 32° 263° (W) 15:47:00 436.500 FM
ISS 21 Apr 15:47:02 15:50:23 89° 324° (NW) 15:53:44 145.800 FM
OPAL 21 Apr 15:53:52 15:58:42 37° 100° (E) 16:03:29 ?
JAS-1B 21 Apr 15:57:12 16:04:45 51° 70° (ENE) 16:11:07 435.800 - 435.900 CW/SSB
SO-50 21 Apr 16:03:48 16:08:17 85° 122° (ESE) 16:12:49 436.795 FM
RS-15 21 Apr 16:08:05 16:19:04 73° 54° (NE) 16:30:17 29.354 - 29.394 USB, Beacon 29.352 USB
AO-Echo 21 Apr 16:14:50 16:18:37 20° 267° (W) 16:22:21 ?
AO-27 21 Apr 16:21:31 16:24:11 14° 270° (W) 16:26:50 436.795 MHz FM
Gurwin Techsat 1B 21 Apr 16:23:29 16:28:29 42° 262° (W) 16:33:32 435.225 FM
ITAMSAT 1 21 Apr 16:32:57 16:34:26 11° 272° (W) 16:35:55 435.822 SSB
Uosat F 21 Apr 16:33:31 16:38:30 69° 73° (ENE) 16:43:30 435.120 FM
UOSAT-12 21 Apr 16:38:19 16:39:07 10° 106° (ESE) 16:39:54 437.025 FM, 437.400 FM
AO-7 21 Apr 16:43:57 16:52:07 69° 68° (ENE) 17:00:20 29.400 - 29.500 MHz
TMSAT-1 21 Apr 17:11:28 17:15:32 22° 267° (W) 17:19:36 436.925 FM
ISS 21 Apr 17:24:50 17:27:29 21° 343° (NNW) 17:30:09 145.800 FM
OPAL 21 Apr 17:32:57 17:37:26 30° 296° (WNW) 17:41:53 ?
